�������l�o���
Date,Time,MP-1(��Sv/h),MP-2(��Sv/h),MP-3(��Sv/h),MP-4(��Sv/h),MP-5(��Sv/h),MP-6(��Sv/h),MP-7(��Sv/h),MP-8(��Sv/h),����,����(m/s),���J
2023/06/18,00:00,0.525,0.781,0.481,0.940,0.668,0.323,0.560,0.527,���k��,4.9,��
2023/06/18,00:10,0.525,0.782,0.482,0.941,0.669,0.322,0.560,0.528,�k��,2.3,��
2023/06/18,00:20,0.526,0.782,0.480,0.940,0.669,0.324,0.561,0.529,-,CALM,��
2023/06/18,00:30,0.525,0.780,0.483,0.940,0.671,0.324,0.560,0.529,�쐼,1.5,��
2023/06/18,00:40,0.524,0.783,0.480,0.940,0.670,0.322,0.560,0.528,���쐼,1.5,��
2023/06/18,00:50,0.524,0.781,0.481,0.943,0.669,0.323,0.560,0.528,�쐼,1.5,��
2023/06/18,01:00,0.524,0.783,0.481,0.940,0.669,0.323,0.560,0.529,���k��,2.2,��
2023/06/18,01:10,0.526,0.783,0.482,0.940,0.670,0.322,0.561,0.529,���쐼,1.1,��
2023/06/18,01:20,0.525,0.783,0.483,0.942,0.671,0.322,0.561,0.528,���k��,0.8,��
2023/06/18,01:30,0.524,0.781,0.481,0.939,0.672,0.322,0.562,0.530,�k��,1.2,��
2023/06/18,01:40,0.525,0.781,0.481,0.942,0.671,0.322,0.560,0.528,�k,2.5,��
2023/06/18,01:50,0.525,0.782,0.481,0.939,0.670,0.321,0.561,0.528,�k��,4.5,��
2023/06/18,02:00,0.525,0.781,0.482,0.943,0.671,0.322,0.560,0.528,�k��,5.0,��
2023/06/18,02:10,0.525,0.782,0.481,0.942,0.671,0.322,0.562,0.528,�k��,4.7,��
2023/06/18,02:20,0.526,0.783,0.481,0.940,0.671,0.321,0.561,0.529,���k��,3.3,��
2023/06/18,02:30,0.525,0.782,0.482,0.943,0.670,0.321,0.560,0.528,���k��,2.3,��
2023/06/18,02:40,0.524,0.781,0.481,0.942,0.671,0.323,0.560,0.528,���쐼,4.1,��
2023/06/18,02:50,0.525,0.781,0.481,0.941,0.672,0.322,0.561,0.530,���쐼,6.5,��
2023/06/18,03:00,0.527,0.782,0.480,0.942,0.671,0.320,0.561,0.530,���쐼,6.2,��
2023/06/18,03:10,0.526,0.784,0.481,0.942,0.672,0.322,0.562,0.529,���쐼,5.2,��
2023/06/18,03:20,0.525,0.780,0.482,0.940,0.673,0.322,0.560,0.529,���쐼,5.4,��
2023/06/18,03:30,0.526,0.783,0.482,0.941,0.670,0.321,0.562,0.528,���쐼,4.6,��
2023/06/18,03:40,0.527,0.782,0.484,0.941,0.672,0.322,0.562,0.528,���쐼,4.4,��
2023/06/18,03:50,0.525,0.782,0.481,0.941,0.670,0.323,0.562,0.529,���쐼,4.2,��
2023/06/18,04:00,0.524,0.783,0.482,0.942,0.670,0.323,0.562,0.530,���쐼,4.8,��
2023/06/18,04:10,0.525,0.783,0.481,0.943,0.672,0.322,0.561,0.529,��,4.8,��
2023/06/18,04:20,0.524,0.781,0.481,0.942,0.672,0.322,0.562,0.529,��,6.2,��
2023/06/18,04:30,0.525,0.782,0.481,0.941,0.673,0.323,0.562,0.529,��,5.0,��
2023/06/18,04:40,0.525,0.782,0.480,0.942,0.670,0.324,0.561,0.530,���k��,4.2,��
2023/06/18,04:50,0.525,0.782,0.483,0.942,0.672,0.322,0.561,0.529,�k��,2.3,��
2023/06/18,05:00,0.525,0.783,0.482,0.941,0.671,0.323,0.561,0.529,�k��,2.2,��
2023/06/18,05:10,0.525,0.783,0.481,0.942,0.671,0.322,0.563,0.527,���k��,2.2,��
2023/06/18,05:20,0.524,0.783,0.480,0.942,0.671,0.324,0.564,0.530,���k��,2.5,��
2023/06/18,05:30,0.528,0.781,0.482,0.942,0.672,0.323,0.563,0.530,��,3.9,��
2023/06/18,05:40,0.527,0.783,0.482,0.945,0.671,0.322,0.563,0.530,��,5.0,��
2023/06/18,05:50,0.525,0.783,0.482,0.943,0.672,0.323,0.563,0.529,��,7.1,��
2023/06/18,06:00,0.525,0.782,0.481,0.941,0.674,0.322,0.562,0.528,��,5.3,��
2023/06/18,06:10,0.526,0.782,0.481,0.943,0.674,0.322,0.564,0.530,���쐼,3.9,��
2023/06/18,06:20,0.524,0.782,0.481,0.943,0.672,0.322,0.564,0.529,���쐼,4.4,��
2023/06/18,06:30,0.524,0.781,0.479,0.943,0.673,0.321,0.562,0.529,�쐼,3.3,��
2023/06/18,06:40,0.525,0.780,0.483,0.943,0.672,0.323,0.565,0.531,���쐼,1.7,��
2023/06/18,06:50,0.525,0.780,0.480,0.940,0.671,0.323,0.564,0.529,���쐼,0.9,��
2023/06/18,07:00,0.524,0.779,0.481,0.943,0.671,0.322,0.565,0.529,���쐼,1.2,��
2023/06/18,07:10,0.524,0.781,0.480,0.943,0.673,0.322,0.562,0.529,�k,1.2,��
2023/06/18,07:20,0.524,0.780,0.481,0.942,0.672,0.323,0.563,0.530,�k��,2.8,��
2023/06/18,07:30,0.525,0.781,0.481,0.943,0.673,0.324,0.563,0.530,�k��,3.4,��
2023/06/18,07:40,0.524,0.782,0.481,0.942,0.673,0.323,0.562,0.529,���k��,3.8,��
2023/06/18,07:50,0.526,0.781,0.480,0.943,0.671,0.322,0.563,0.529,��,4.0,��
2023/06/18,08:00,0.525,0.784,0.481,0.945,0.673,0.323,0.564,0.527,��,4.6,��
2023/06/18,08:10,0.526,0.783,0.482,0.945,0.671,0.323,0.564,0.527,��,4.7,��
2023/06/18,08:20,0.527,0.784,0.482,0.944,0.672,0.323,0.561,0.527,��,3.5,��
2023/06/18,08:30,0.527,0.784,0.483,0.944,0.674,0.323,0.563,0.528,��,3.0,��
2023/06/18,08:40,0.526,0.784,0.482,0.947,0.673,0.323,0.564,0.528,��,2.8,��
2023/06/18,08:50,0.526,0.783,0.482,0.944,0.672,0.324,0.563,0.528,��,2.5,��
2023/06/18,09:00,0.528,0.786,0.482,0.947,0.674,0.322,0.565,0.529,���쐼,3.0,��
2023/06/18,09:10,0.526,0.785,0.482,0.945,0.674,0.324,0.564,0.529,�쐼,3.1,��
2023/06/18,09:20,0.525,0.785,0.483,0.948,0.676,0.324,0.566,0.530,��,2.6,��
2023/06/18,09:30,0.528,0.785,0.482,0.945,0.672,0.322,0.565,0.529,��쓌,3.1,��
2023/06/18,09:40,0.528,0.786,0.482,0.947,0.674,0.324,0.565,0.530,��쓌,3.1,��
2023/06/18,09:50,0.528,0.789,0.483,0.947,0.675,0.323,0.564,0.528,��쓌,3.7,��
2023/06/18,10:00,0.528,0.786,0.482,0.947,0.675,0.325,0.565,0.528,��쓌,2.6,��
2023/06/18,10:10,0.528,0.787,0.481,0.945,0.674,0.323,0.564,0.530,��쓌,3.0,��
2023/06/18,10:20,0.528,0.786,0.483,0.947,0.674,0.324,0.564,0.529,��쓌,3.8,��
2023/06/18,10:30,0.528,0.788,0.483,0.947,0.675,0.323,0.562,0.530,�쓌,3.8,��
2023/06/18,10:40,0.529,0.789,0.482,0.947,0.676,0.324,0.562,0.527,�쓌,3.8,��
2023/06/18,10:50,0.529,0.787,0.482,0.948,0.677,0.323,0.563,0.530,�쓌,3.4,��
2023/06/18,11:00,0.531,0.789,0.483,0.951,0.676,0.323,0.564,0.532,�쓌,4.5,��
2023/06/18,11:10,0.529,0.790,0.484,0.950,0.675,0.324,0.562,0.530,�쓌,4.8,��
2023/06/18,11:20,0.531,0.789,0.482,0.949,0.677,0.323,0.562,0.529,�쓌,4.7,��
2023/06/18,11:30,0.530,0.789,0.483,0.946,0.677,0.324,0.563,0.529,�쓌,6.1,��
2023/06/18,11:40,0.530,0.792,0.483,0.946,0.678,0.324,0.563,0.531,��쓌,7.3,��
2023/06/18,11:50,0.530,0.791,0.486,0.947,0.678,0.322,0.561,0.529,��쓌,7.4,��
2023/06/18,12:00,0.530,0.793,0.485,0.945,0.680,0.323,0.563,0.529,��쓌,6.9,��
2023/06/18,12:10,0.531,0.792,0.483,0.949,0.681,0.322,0.564,0.529,��쓌,6.9,��
2023/06/18,12:20,0.529,0.791,0.484,0.947,0.682,0.324,0.563,0.529,��쓌,6.3,��
2023/06/18,12:30,0.530,0.793,0.485,0.948,0.680,0.323,0.562,0.530,��쓌,5.3,��
2023/06/18,12:40,0.532,0.792,0.484,0.947,0.678,0.324,0.562,0.531,��쓌,4.7,��
2023/06/18,12:50,0.530,0.792,0.484,0.948,0.680,0.324,0.562,0.530,��쓌,3.1,��
2023/06/18,13:00,0.529,0.791,0.485,0.949,0.681,0.323,0.563,0.531,�쓌,3.4,��
2023/06/18,13:10,0.531,0.793,0.484,0.948,0.680,0.325,0.563,0.531,�쓌,3.4,��
2023/06/18,13:20,0.532,0.792,0.487,0.950,0.684,0.324,0.564,0.531,�쓌,2.3,��
2023/06/18,13:30,0.532,0.793,0.486,0.951,0.681,0.325,0.564,0.532,�쓌,3.2,��
2023/06/18,13:40,0.533,0.793,0.485,0.950,0.682,0.325,0.563,0.531,�쓌,4.5,��
2023/06/18,13:50,0.532,0.795,0.486,0.950,0.682,0.326,0.563,0.531,�쓌,4.5,��
2023/06/18,14:00,0.532,0.794,0.485,0.951,0.683,0.327,0.563,0.531,��쓌,4.3,��
2023/06/18,14:10,0.532,0.794,0.486,0.949,0.682,0.324,0.564,0.530,��쓌,4.5,��
2023/06/18,14:20,0.533,0.794,0.483,0.949,0.682,0.323,0.563,0.530,��쓌,5.1,��
2023/06/18,14:30,0.533,0.794,0.486,0.951,0.683,0.325,0.565,0.532,��쓌,4.2,��
2023/06/18,14:40,0.531,0.795,0.487,0.951,0.684,0.325,0.565,0.531,��,3.2,��
2023/06/18,14:50,0.534,0.796,0.486,0.952,0.683,0.324,0.565,0.530,��,2.8,��
2023/06/18,15:00,0.534,0.796,0.487,0.951,0.683,0.325,0.564,0.531,��,2.8,��
2023/06/18,15:10,0.532,0.794,0.487,0.952,0.683,0.325,0.564,0.530,��쐼,2.3,��
2023/06/18,15:20,0.532,0.793,0.486,0.951,0.684,0.327,0.563,0.531,��,2.8,��
2023/06/18,15:30,0.534,0.795,0.487,0.952,0.685,0.326,0.564,0.531,��,2.3,��
2023/06/18,15:40,0.533,0.795,0.485,0.953,0.684,0.327,0.564,0.532,�k,0.9,��
2023/06/18,15:50,0.533,0.796,0.487,0.953,0.685,0.326,0.565,0.531,�k,2.6,��
2023/06/18,16:00,0.533,0.796,0.486,0.952,0.685,0.326,0.565,0.531,�k�k��,2.8,��
2023/06/18,16:10,0.533,0.796,0.487,0.953,0.684,0.326,0.564,0.532,�k,3.4,��
2023/06/18,16:20,0.532,0.795,0.487,0.954,0.685,0.326,0.563,0.531,�k,2.9,��
2023/06/18,16:30,0.533,0.796,0.487,0.953,0.685,0.326,0.564,0.531,�k,2.5,��
2023/06/18,16:40,0.533,0.794,0.487,0.952,0.686,0.325,0.563,0.532,���쓌,1.4,��
2023/06/18,16:50,0.533,0.797,0.485,0.953,0.685,0.324,0.562,0.532,�쓌,1.5,��
2023/06/18,17:00,0.532,0.794,0.485,0.954,0.683,0.325,0.563,0.530,�쓌,2.0,��
2023/06/18,17:10,0.532,0.796,0.486,0.953,0.684,0.323,0.564,0.530,�쓌,2.8,��
2023/06/18,17:20,0.533,0.795,0.484,0.952,0.686,0.323,0.561,0.531,�쓌,1.9,��
2023/06/18,17:30,0.533,0.795,0.487,0.953,0.685,0.325,0.562,0.530,�쓌,0.9,��
2023/06/18,17:40,0.534,0.796,0.486,0.952,0.682,0.323,0.562,0.529,-,CALM,��
2023/06/18,17:50,0.535,0.793,0.486,0.953,0.685,0.324,0.561,0.530,�k�k��,1.4,��
2023/06/18,18:00,0.532,0.795,0.485,0.953,0.684,0.325,0.563,0.530,�k�k��,5.0,��
2023/06/18,18:10,0.533,0.795,0.486,0.953,0.682,0.324,0.563,0.531,�k,7.4,��
2023/06/18,18:20,0.532,0.794,0.485,0.954,0.684,0.323,0.562,0.531,�k,6.6,��
2023/06/18,18:30,0.531,0.795,0.483,0.955,0.685,0.322,0.562,0.530,�k,6.5,��
2023/06/18,18:40,0.534,0.795,0.485,0.953,0.683,0.323,0.562,0.531,�k,6.7,��
2023/06/18,18:50,0.533,0.795,0.485,0.953,0.684,0.325,0.562,0.532,�k,6.3,��
2023/06/18,19:00,0.534,0.796,0.485,0.952,0.684,0.322,0.563,0.532,�k,6.3,��
2023/06/18,19:10,0.533,0.795,0.486,0.955,0.684,0.324,0.564,0.531,�k,5.9,��
2023/06/18,19:20,0.534,0.795,0.486,0.953,0.685,0.324,0.565,0.531,�k,4.5,��
2023/06/18,19:30,0.533,0.797,0.487,0.953,0.684,0.325,0.564,0.531,�k,4.6,��
2023/06/18,19:40,0.533,0.795,0.486,0.956,0.687,0.323,0.563,0.532,�k,4.1,��
2023/06/18,19:50,0.532,0.798,0.486,0.955,0.686,0.324,0.564,0.532,�k�k��,3.9,��
2023/06/18,20:00,0.534,0.797,0.488,0.955,0.685,0.323,0.565,0.531,�k�k��,3.4,��
2023/06/18,20:10,0.533,0.797,0.487,0.957,0.685,0.324,0.564,0.533,�k�k��,3.5,��
2023/06/18,20:20,0.533,0.798,0.487,0.959,0.687,0.324,0.562,0.532,�k�k��,3.4,��
2023/06/18,20:30,0.533,0.799,0.488,0.957,0.685,0.324,0.563,0.531,�k�k��,3.0,��
2023/06/18,20:40,0.533,0.798,0.488,0.959,0.686,0.324,0.563,0.532,�k,2.6,��
2023/06/18,20:50,0.534,0.797,0.487,0.956,0.686,0.326,0.562,0.532,�k,2.9,��
2023/06/18,21:00,0.533,0.798,0.487,0.958,0.688,0.325,0.563,0.531,�k,2.3,��
2023/06/18,21:10,0.535,0.798,0.487,0.956,0.686,0.324,0.563,0.532,�k,2.3,��
2023/06/18,21:20,0.532,0.797,0.488,0.958,0.686,0.326,0.563,0.532,�k,3.6,��
2023/06/18,21:30,0.534,0.795,0.487,0.956,0.684,0.325,0.564,0.532,�k,4.2,��
2023/06/18,21:40,0.534,0.796,0.488,0.955,0.685,0.325,0.564,0.532,�k,4.9,��
2023/06/18,21:50,0.533,0.798,0.488,0.956,0.685,0.325,0.564,0.533,�k,4.8,��
2023/06/18,22:00,0.533,0.799,0.487,0.957,0.685,0.325,0.563,0.532,�k,5.2,��
2023/06/18,22:10,0.534,0.797,0.488,0.955,0.684,0.325,0.563,0.534,�k,4.7,��
2023/06/18,22:20,0.533,0.797,0.487,0.957,0.686,0.325,0.563,0.532,�k,4.5,��
2023/06/18,22:30,0.533,0.798,0.487,0.957,0.686,0.326,0.564,0.533,�k,4.3,��
2023/06/18,22:40,0.533,0.796,0.488,0.957,0.684,0.325,0.564,0.532,�k,4.6,��
2023/06/18,22:50,0.536,0.798,0.487,0.958,0.686,0.325,0.563,0.531,�k,4.9,��
2023/06/18,23:00,0.533,0.799,0.487,0.957,0.687,0.324,0.565,0.533,�k,5.2,��
2023/06/18,23:10,0.532,0.799,0.488,0.957,0.687,0.324,0.565,0.532,�k�k��,3.8,��
2023/06/18,23:20,0.534,0.800,0.489,0.958,0.686,0.325,0.565,0.531,�k,3.7,��
2023/06/18,23:30,0.533,0.799,0.488,0.956,0.685,0.325,0.565,0.534,�k,4.7,��
2023/06/18,23:40,0.534,0.800,0.488,0.957,0.688,0.325,0.565,0.532,�k,4.8,��
2023/06/18,23:50,0.533,0.796,0.488,0.956,0.684,0.325,0.565,0.533,�k,4.7,��
